LGZALGIR

Guest
Details From LGZA - Dionysios Solomos
To LGIR - Iraklion - Nizos Kazantzakis
Flight Number -
Tags generated
Created
Modified
Stats Distance 260 nm / 481 km
Max Altitude 25,800 ft / 7,864 m
Waypoints 4
Social Downloads 0
Likes 0
Share VATSIM

Download

Looking for another format? Having issues loading an existing format? Contact us
Advertisement - Login to hide

Notes

Basic altitude profile: - Ascent Rate: 1000ft/min - Ascent Speed: 150kts - Cruise Altitude: 12000ft - Cruise Speed: 240kts - Descent Rate: 1000ft/min - Descent Speed: 150kts Options: - Use NATs: yes - Use PACOTS: yes - Use low airways: yes - Use high airways: yes

Route

LGZA TRL UJ65 SOKRI LGIR

ID Type Via Altitude Latitude Longitude Leg Dist Tot Dist Heading (true) Name
O LGZA APT - 0 ft / 0 m 37.75123˚ 20.88411˚ - 0 nm - Dionysios Solomos
TRL VOR - 25,800 ft / 7,864 m 37.40275˚ 22.33963˚ 72 nm 72 nm 106° / 107° TRIPOLIS VOR-DME
SOKRI FIX UJ65 (AWY-HI) 23,500 ft / 7,163 m 36.25778˚ 23.47194˚ 87 nm 160 nm 141° / 142° -
O LGIR APT - 0 ft / 0 m 35.33949˚ 25.18012˚ 99 nm 259 nm 123° / 124° Iraklion - Nizos Kazantzakis

Altitude Profile

Advertisement - Login to hide

Weather


0- 5 10 15 20 25 30 35+ Temperature / ° C

Clouds and Precipitation
Forecast for 2018-05-23 06:00 UTC. Updated 4 hours ago

Ground ~20,000 ft ~40,000 ft Winds

LGZA

Details ICAO LGZA (ZTH)
Name Dionysios Solomos
Region Greece
Timezone Europe/Athens (UTC+3.0)
Stats Elevation 14 ft / 4 m (AMSL)
Location 37.751230° 20.884106°
Runways 1
Magnetic Variation 4.115° E

METAR

LGZA 230850Z 16006KT 9999 FEW018TCU SCT020 BKN070 26/18 Q1013

Decode

TAF

Not found

Departure Runways

ID Width Length Bearing (true) Bearing (mag) Surface Threshold Offset Overrun Length
16 148 ft / 45 m 7,315 ft / 2,230 m 163.49° 159.38° Asphalt 715 ft / 218 m 112 ft / 34 m
34 148 ft / 45 m 7,315 ft / 2,230 m 343.49° 339.38° Asphalt 728 ft / 222 m 135 ft / 41 m

LGIR

Details ICAO LGIR (HER)
Name Iraklion - Nizos Kazantzakis
Region Greece
Timezone Europe/Athens (UTC+3.0)
Stats Elevation 115 ft / 35 m (AMSL)
Location 35.339487° 25.180120°
Runways 3
Magnetic Variation 4.421° E

METAR

LGIR 230850Z 01006KT 9999 FEW018 25/21 Q1017 NOSIG

Decode

TAF

TAF LGIR 230500Z 2306/2406 04008KT 9999 FEW018 BECMG 2320/2322 18010KT

Decode

Destination Runways

ID Width Length Bearing (true) Bearing (mag) Surface Threshold Offset Overrun Length
09 148 ft / 45 m 8,755 ft / 2,669 m 94.84° 90.42° Asphalt 1,565 ft / 477 m 200 ft / 61 m
12 164 ft / 50 m 5,136 ft / 1,566 m 126.27° 121.85° Asphalt 499 ft / 152 m 190 ft / 58 m
18 131 ft / 40 m 2,607 ft / 795 m 180.40° 175.98° Asphalt 0 ft / 0 m 0 ft / 0 m
27 148 ft / 45 m 8,755 ft / 2,669 m 274.86° 270.44° Asphalt 0 ft / 0 m 210 ft / 64 m
30 164 ft / 50 m 5,136 ft / 1,566 m 306.28° 301.86° Asphalt 0 ft / 0 m 0 ft / 0 m
36 131 ft / 40 m 2,607 ft / 795 m 0.40° 355.98° Asphalt 328 ft / 100 m 0 ft / 0 m

Popular Alternatives